sat.trackr.live / text

‹ back to catalog

ONEWEB-0264

NORAD 48982 · 2021-060R

PAYLOAD ACTIVE UNKNOWN

§ Identity

Operator
Country
UK
Launch date
2021-07-01
Launch site
VOSTO
Launch vehicle
Mass (kg)
RCS (m²)

Purposes: comms

External: N2YO · Heavens-Above · Gunter

§ Orbital elements

Epoch: 2026-05-25T03:46:24.424896Z

Period
109.37 min
Inclination
87.9105°
Eccentricity
0.0001992
Mean motion
13.16593121 rev/d
Perigee alt
1,196.3 km
Apogee alt
1,199.3 km
Semi-major
7,575.9 km
B*
2.7625e-4
RAAN
233.3571°
Arg perigee
93.2652°
Mean anomaly
266.8707°
Rev number
23,656

§ Raw data

ONEWEB-02641 48982U 21060R   26145.15722714  .00000118  00000+0  27625-3 0  99912 48982  87.9105 233.3571 0001992  93.2652 266.8707 13.16593121236565

JSON: /api/v1/satellites/48982 · /tle

For live sub-satellite position, see the globe view (requires WebGL).

§ Visibility from observer

Set your observer location to see the next 7 days of passes ≥ 10°. The values pass through the URL so the page stays shareable.

No JS? Fill the form by hand. The geolocation button needs JavaScript.